This is the latest recevied weather packets stored in our database for station/object KD9WYV. If no packets are shown the sender has not sent any weather packets the latest 1 day(s).
| Time | Temp. | Humidity | Pressure | Rain* | Wind** | Luminosity | Snow |
|---|---|---|---|---|---|---|---|
| 1778024508 | 8.33° C | 96% | 1009.3 hPa | 4.32 mm | 0 m/s | 10 W/m² | - |
| 1778024205 | 8.33° C | 96% | 1009.4 hPa | 4.83 mm | 0.45 m/s, 351° | 8 W/m² | - |
| 1778023903 | 8.33° C | 96% | 1009.2 hPa | 3.56 mm | 0 m/s | 7 W/m² | - |
| 1778023600 | 8.33° C | 96% | 1009.2 hPa | 1.78 mm | 0 m/s | 7 W/m² | - |
| 1778023298 | 8.33° C | 96% | 1009.4 hPa | 1.27 mm | 0.45 m/s, 355° | 14 W/m² | - |
| 1778022994 | 8.33° C | 96% | 1009.5 hPa | 1.27 mm | 0 m/s | 16 W/m² | - |
| 1778022693 | 8.33° C | 96% | 1009.7 hPa | 1.78 mm | 0.45 m/s, 56° | 20 W/m² | - |
| 1778022391 | 8.33° C | 96% | 1009.6 hPa | 1.78 mm | 0.89 m/s, 20° | 25 W/m² | - |
| 1778022087 | 8.33° C | 96% | 1009.5 hPa | 1.27 mm | 0.45 m/s, 356° | 31 W/m² | - |
| 1778021783 | 8.33° C | 96% | 1009.5 hPa | 1.27 mm | 1.34 m/s, 71° | 33 W/m² | - |
| 1778021480 | 8.89° C | 96% | 1009.5 hPa | 1.78 mm | 1.79 m/s, 2° | 45 W/m² | - |
| 1778021176 | 8.89° C | 96% | 1009.6 hPa | 3.05 mm | 0.89 m/s, 331° | 28 W/m² | - |
| 1778020874 | 8.89° C | 96% | 1009.4 hPa | 3.05 mm | 0.89 m/s, 353° | 22 W/m² | - |
| 1778020571 | 8.33° C | 96% | 1009.5 hPa | 4.32 mm | 0.45 m/s, 344° | 28 W/m² | - |
| 1778020267 | 8.33° C | 96% | 1009.5 hPa | 4.83 mm | 1.79 m/s, 354° | 46 W/m² | - |
| 1778019963 | 8.33° C | 96% | 1009.6 hPa | 3.05 mm | 1.79 m/s, 0° | 38 W/m² | - |
| 1778019660 | 8.33° C | 96% | 1009.8 hPa | 3.05 mm | 0 m/s | 24 W/m² | - |
| 1778019357 | 8.33° C | 96% | 1010 hPa | 4.83 mm | 0.89 m/s, 0° | 25 W/m² | - |
| 1778019053 | 8.33° C | 96% | 1009.8 hPa | 3.05 mm | 3.58 m/s, 354° | 35 W/m² | - |
| 1778018751 | 8.33° C | 96% | 1009.5 hPa | 1.78 mm | 2.68 m/s, 334° | 49 W/m² | - |
| 1778018448 | 8.33° C | 96% | 1009.6 hPa | 1.78 mm | 2.24 m/s, 25° | 39 W/m² | - |
| 1778018146 | 8.33° C | 96% | 1009.6 hPa | 0 mm | 2.68 m/s, 44° | 41 W/m² | - |
| 1778017844 | 8.33° C | 95% | 1009.6 hPa | 1.27 mm | 0.45 m/s, 348° | 36 W/m² | - |
| 1778017542 | 8.89° C | 95% | 1009.7 hPa | 1.27 mm | 1.79 m/s, 43° | 35 W/m² | - |
| 1778017238 | 8.89° C | 96% | 1009.6 hPa | 0 mm | 1.34 m/s, 355° | 23 W/m² | - |
* Rain latest hour (hover to see other rain measurements)
** Current wind speed in m/s (hover to see current wind gust speed)